AZA1773 LIML-LICJ

Flight info

Callsign AZA1773
Flight time 1h 22m
Altitude 37000
Route LOGDI DCT LOMED DCT LURON
Aircraft A320/M-SDE3FGHIRWY/LB1

Departure

Time 2026-05-07 20:01
Airport Milano Linate Airport (LIML)

Arrival

Time 2026-05-07 21:23
Airport Falcone–Borsellino Airport (LICJ)
Time Latitude Longitude Altitude Speed Heading
2026-05-07 19:40 45.45978 9.27907 360 ft 0 kts
2026-05-07 19:50 45.45973 9.27907 359 ft 2 kts
2026-05-07 19:51 45.45956 9.27906 358 ft 2 kts
2026-05-07 19:51 45.45939 9.27905 356 ft 2 kts
2026-05-07 19:51 45.45925 9.27894 357 ft 2 kts 79°
2026-05-07 19:51 45.45924 9.27892 357 ft 0 kts 85°
2026-05-07 19:54 45.45924 9.27893 356 ft 1 kts 86°
2026-05-07 19:54 45.45919 9.27929 356 ft 6 kts 107°
2026-05-07 19:55 45.45881 9.27982 356 ft 10 kts 163°
2026-05-07 19:55 45.45798 9.27984 356 ft 14 kts 181°
2026-05-07 19:55 45.45687 9.27981 356 ft 17 kts 181°
2026-05-07 19:55 45.45562 9.27977 356 ft 16 kts 180°
2026-05-07 19:56 45.45467 9.27978 357 ft 12 kts 179°
2026-05-07 19:56 45.45382 9.27973 357 ft 13 kts 193°
2026-05-07 19:56 45.45296 9.27916 359 ft 14 kts 207°
2026-05-07 19:56 45.45197 9.27871 357 ft 16 kts 185°
2026-05-07 19:57 45.45074 9.27881 356 ft 19 kts 175°
2026-05-07 19:57 45.44933 9.27907 362 ft 21 kts 164°
2026-05-07 19:57 45.44788 9.27946 362 ft 22 kts 174°
2026-05-07 19:57 45.44634 9.27963 358 ft 23 kts 175°
2026-05-07 19:58 45.44479 9.27979 359 ft 23 kts 175°
2026-05-07 19:58 45.44323 9.27995 356 ft 21 kts 176°
2026-05-07 19:58 45.44177 9.28011 359 ft 21 kts 175°
2026-05-07 19:58 45.44031 9.28028 359 ft 21 kts 175°
2026-05-07 19:59 45.43880 9.28045 360 ft 22 kts 175°
2026-05-07 19:59 45.43727 9.28062 358 ft 22 kts 175°
2026-05-07 19:59 45.43574 9.28078 357 ft 20 kts 175°
2026-05-07 19:59 45.43456 9.28055 358 ft 10 kts 226°
2026-05-07 20:00 45.43442 9.27971 357 ft 8 kts 265°
2026-05-07 20:00 45.43439 9.27882 357 ft 10 kts 274°
2026-05-07 20:00 45.43482 9.27821 356 ft 10 kts 346°
2026-05-07 20:00 45.43706 9.27794 356 ft 69 kts 355°
2026-05-07 20:01 45.44131 9.27749 359 ft 115 kts 355°
2026-05-07 20:01 45.45111 9.27638 485 ft 154 kts 355°
2026-05-07 20:01 45.46146 9.27528 1137 ft 149 kts 355°
2026-05-07 20:01 45.47211 9.27604 1597 ft 159 kts
2026-05-07 20:02 45.48365 9.27829 1912 ft 177 kts
2026-05-07 20:02 45.49671 9.28089 2244 ft 196 kts
2026-05-07 20:02 45.51014 9.28338 2926 ft 193 kts 12°
2026-05-07 20:02 45.52253 9.29034 3593 ft 192 kts 33°
2026-05-07 20:03 45.53217 9.30335 4215 ft 193 kts 55°
2026-05-07 20:03 45.53789 9.32082 4728 ft 202 kts 76°
2026-05-07 20:03 45.53858 9.34179 4945 ft 226 kts 100°
2026-05-07 20:03 45.53224 9.36342 5238 ft 251 kts 127°
2026-05-07 20:04 45.51835 9.37980 5715 ft 270 kts 156°
2026-05-07 20:04 45.50057 9.38940 6508 ft 275 kts 160°
2026-05-07 20:04 45.48386 9.40222 7291 ft 279 kts 139°
2026-05-07 20:04 45.47154 9.42365 8099 ft 283 kts 124°
2026-05-07 20:05 45.46049 9.44706 8935 ft 286 kts 124°
2026-05-07 20:05 45.44932 9.47076 9759 ft 290 kts 124°
2026-05-07 20:05 45.43794 9.49487 10372 ft 301 kts 124°
2026-05-07 20:05 45.42581 9.52053 10602 ft 324 kts 124°
2026-05-07 20:06 45.41287 9.54783 11026 ft 338 kts 124°
2026-05-07 20:06 45.39955 9.57587 11680 ft 344 kts 125°
2026-05-07 20:06 45.38576 9.60398 12358 ft 349 kts 130°
2026-05-07 20:06 45.36880 9.62892 13030 ft 352 kts 142°
2026-05-07 20:07 45.34862 9.64880 13722 ft 354 kts 151°
2026-05-07 20:07 45.32745 9.66711 14353 ft 358 kts 151°
2026-05-07 20:07 45.30608 9.68561 14972 ft 362 kts 151°
2026-05-07 20:07 45.28449 9.70435 15578 ft 365 kts 151°
2026-05-07 20:08 45.26276 9.72330 16198 ft 368 kts 150°
2026-05-07 20:08 45.24082 9.74244 16811 ft 372 kts 150°
2026-05-07 20:08 45.21870 9.76172 17419 ft 375 kts 150°
2026-05-07 20:08 45.19633 9.78118 18033 ft 378 kts 150°
2026-05-07 20:09 45.17374 9.80077 18584 ft 382 kts 151°
2026-05-07 20:09 45.15099 9.82044 19105 ft 385 kts 151°
2026-05-07 20:09 45.12807 9.84025 19678 ft 387 kts 151°
2026-05-07 20:10 45.08171 9.88025 20748 ft 393 kts 152°
2026-05-07 20:10 45.05856 9.90015 21266 ft 396 kts 152°
2026-05-07 20:10 45.03461 9.92076 21796 ft 400 kts 152°
2026-05-07 20:10 45.01109 9.94102 22310 ft 403 kts 152°
2026-05-07 20:11 44.98705 9.96175 22820 ft 406 kts 152°
2026-05-07 20:11 44.96253 9.98285 23317 ft 410 kts 152°
2026-05-07 20:11 44.93803 10.00387 23738 ft 413 kts 153°
2026-05-07 20:11 44.91339 10.02498 24134 ft 416 kts 153°
2026-05-07 20:12 44.88857 10.04622 24520 ft 419 kts 153°
2026-05-07 20:12 44.86388 10.06733 24914 ft 422 kts 153°
2026-05-07 20:12 44.83874 10.08887 25288 ft 424 kts 153°
2026-05-07 20:12 44.81341 10.11051 25653 ft 427 kts 154°
2026-05-07 20:13 44.78790 10.13226 26010 ft 430 kts 154°
2026-05-07 20:13 44.76221 10.15411 26360 ft 432 kts 154°
2026-05-07 20:13 44.73636 10.17608 26686 ft 435 kts 154°
2026-05-07 20:13 44.71070 10.19939 26995 ft 444 kts 148°
2026-05-07 20:14 44.68674 10.22742 27265 ft 450 kts 145°
2026-05-07 20:14 44.66289 10.25608 27579 ft 453 kts 145°
2026-05-07 20:14 44.63879 10.28490 27873 ft 457 kts 146°
2026-05-07 20:14 44.61450 10.31378 28214 ft 459 kts 146°
2026-05-07 20:15 44.58999 10.34286 28518 ft 462 kts 146°
2026-05-07 20:15 44.56529 10.37212 28821 ft 465 kts 146°
2026-05-07 20:15 44.54049 10.40143 29117 ft 468 kts 146°
2026-05-07 20:15 44.51552 10.43094 29416 ft 471 kts 147°
2026-05-07 20:16 44.49041 10.46064 29665 ft 474 kts 147°
2026-05-07 20:16 44.46516 10.49056 29927 ft 477 kts 147°
2026-05-07 20:16 44.43976 10.52062 30184 ft 479 kts 147°
2026-05-07 20:16 44.41422 10.55080 30417 ft 481 kts 147°
2026-05-07 20:17 44.38858 10.58101 30642 ft 483 kts 147°
2026-05-07 20:17 44.36314 10.61095 30858 ft 484 kts 147°
2026-05-07 20:17 44.33734 10.64129 31098 ft 486 kts 147°
2026-05-07 20:17 44.31145 10.67172 31332 ft 487 kts 147°
2026-05-07 20:18 44.28551 10.70218 31634 ft 486 kts 147°
2026-05-07 20:18 44.25963 10.73259 31970 ft 485 kts 147°
2026-05-07 20:18 44.23387 10.76280 32305 ft 483 kts 147°
2026-05-07 20:18 44.20816 10.79292 32618 ft 482 kts 147°
2026-05-07 20:19 44.18246 10.82293 32937 ft 481 kts 148°
2026-05-07 20:19 44.15686 10.85275 33248 ft 479 kts 148°
2026-05-07 20:19 44.13129 10.88249 33567 ft 478 kts 148°
2026-05-07 20:19 44.10615 10.91169 33904 ft 477 kts 148°
2026-05-07 20:20 44.08072 10.94118 34175 ft 475 kts 148°
2026-05-07 20:20 44.05537 10.97049 34492 ft 471 kts 150°
2026-05-07 20:20 44.02868 10.99585 34752 ft 459 kts 159°
2026-05-07 20:20 44.00025 11.01488 34976 ft 449 kts 168°
2026-05-07 20:21 43.97092 11.02848 35187 ft 443 kts 171°
2026-05-07 20:21 43.94156 11.04134 35424 ft 443 kts 171°
2026-05-07 20:21 43.91223 11.05426 35652 ft 442 kts 171°
2026-05-07 20:21 43.88287 11.06725 35835 ft 442 kts 171°
2026-05-07 20:22 43.85366 11.08019 36093 ft 440 kts 171°
2026-05-07 20:22 43.82450 11.09312 36337 ft 439 kts 171°
2026-05-07 20:22 43.79547 11.10599 36537 ft 438 kts 171°
2026-05-07 20:22 43.76640 11.11884 36731 ft 438 kts 171°
2026-05-07 20:23 43.73740 11.13164 36925 ft 438 kts 171°
2026-05-07 20:23 43.67945 11.15717 36986 ft 436 kts 171°
2026-05-07 20:24 43.62216 11.18234 37020 ft 434 kts 171°
2026-05-07 20:24 43.56464 11.20753 37046 ft 434 kts 171°
2026-05-07 20:25 43.50713 11.23266 37042 ft 433 kts 171°
2026-05-07 20:25 43.44968 11.25772 37034 ft 433 kts 171°
2026-05-07 20:26 43.39220 11.28270 37043 ft 433 kts 171°
2026-05-07 20:26 43.33468 11.30768 37030 ft 433 kts 171°
2026-05-07 20:27 43.27748 11.33252 37036 ft 434 kts 171°
2026-05-07 20:27 43.21993 11.35746 37023 ft 434 kts 171°
2026-05-07 20:28 43.16227 11.38232 37025 ft 434 kts 171°
2026-05-07 20:28 43.10462 11.40718 37033 ft 434 kts 171°
2026-05-07 20:29 43.04699 11.43205 37018 ft 434 kts 171°
2026-05-07 20:29 42.98935 11.45696 37027 ft 434 kts 171°
2026-05-07 20:30 42.93168 11.48169 37026 ft 434 kts 171°
2026-05-07 20:30 42.87405 11.50626 37030 ft 434 kts 171°
2026-05-07 20:31 42.81649 11.53074 37006 ft 433 kts 170°
2026-05-07 20:31 42.75927 11.55514 37016 ft 434 kts 170°
2026-05-07 20:32 42.70168 11.57970 37022 ft 433 kts 170°
2026-05-07 20:32 42.64408 11.60419 37017 ft 433 kts 170°
2026-05-07 20:33 42.58653 11.62857 36998 ft 433 kts 170°
2026-05-07 20:33 42.52901 11.65284 37006 ft 433 kts 170°
2026-05-07 20:34 42.47143 11.67718 36987 ft 433 kts 170°
2026-05-07 20:34 42.41387 11.70141 36967 ft 433 kts 170°
2026-05-07 20:35 42.35635 11.72561 36985 ft 433 kts 170°
2026-05-07 20:35 42.29883 11.74979 36994 ft 433 kts 170°
2026-05-07 20:36 42.24129 11.77395 36993 ft 433 kts 170°
2026-05-07 20:36 42.18369 11.79803 36998 ft 433 kts 171°
2026-05-07 20:37 42.12617 11.82189 37024 ft 433 kts 171°
2026-05-07 20:37 42.06859 11.84581 37051 ft 433 kts 170°
2026-05-07 20:38 42.01107 11.86985 37081 ft 433 kts 170°
2026-05-07 20:38 41.95387 11.89362 37085 ft 433 kts 170°
2026-05-07 20:39 41.89628 11.91741 37094 ft 433 kts 171°
2026-05-07 20:39 41.83864 11.94124 37092 ft 433 kts 170°
2026-05-07 20:40 41.78102 11.96501 37077 ft 433 kts 170°
2026-05-07 20:40 41.72326 11.98882 37021 ft 434 kts 171°
2026-05-07 20:41 41.66540 12.01259 36997 ft 435 kts 171°
2026-05-07 20:41 41.60752 12.03624 36967 ft 435 kts 171°
2026-05-07 20:42 41.54998 12.05981 36913 ft 436 kts 171°
2026-05-07 20:42 41.49193 12.08354 36923 ft 437 kts 171°
2026-05-07 20:43 41.43367 12.10734 36933 ft 438 kts 171°
2026-05-07 20:43 41.37538 12.13119 36947 ft 438 kts 171°
2026-05-07 20:44 41.31706 12.15493 36931 ft 438 kts 171°
2026-05-07 20:44 41.25863 12.17863 36948 ft 439 kts 171°
2026-05-07 20:45 41.20014 12.20227 36947 ft 439 kts 171°
2026-05-07 20:45 41.14209 12.22569 36960 ft 439 kts 171°
2026-05-07 20:46 41.08330 12.24942 36954 ft 438 kts 171°
2026-05-07 20:46 41.02529 12.27276 36965 ft 438 kts 171°
2026-05-07 20:47 40.96697 12.29625 36973 ft 438 kts 171°
2026-05-07 20:47 40.90866 12.31963 36970 ft 438 kts 171°
2026-05-07 20:48 40.85041 12.34291 36960 ft 437 kts 171°
2026-05-07 20:48 40.79218 12.36625 36967 ft 437 kts 171°
2026-05-07 20:49 40.73404 12.38943 36967 ft 436 kts 171°
2026-05-07 20:49 40.67595 12.41250 36922 ft 436 kts 171°
2026-05-07 20:50 40.61794 12.43559 36948 ft 435 kts 172°
2026-05-07 20:50 40.56977 12.45476 36958 ft 435 kts 172°
2026-05-07 20:51 40.51185 12.47768 36958 ft 434 kts 172°
2026-05-07 20:51 40.44462 12.50424 36942 ft 434 kts 172°
2026-05-07 20:52 40.39618 12.52343 36946 ft 433 kts 172°
2026-05-07 20:52 40.33849 12.54618 36950 ft 433 kts 172°
2026-05-07 20:53 40.28120 12.56872 36955 ft 432 kts 172°
2026-05-07 20:53 40.22361 12.59136 36953 ft 432 kts 172°
2026-05-07 20:54 40.16606 12.61391 36942 ft 431 kts 172°
2026-05-07 20:54 40.10856 12.63638 36947 ft 431 kts 172°
2026-05-07 20:55 40.05111 12.65880 36946 ft 431 kts 172°
2026-05-07 20:55 39.99368 12.68116 36949 ft 430 kts 172°
2026-05-07 20:55 39.96500 12.69233 36785 ft 431 kts 172°
2026-05-07 20:56 39.93631 12.70351 36529 ft 430 kts 172°
2026-05-07 20:56 39.90769 12.71464 36268 ft 429 kts 172°
2026-05-07 20:56 39.87905 12.72571 36022 ft 429 kts 172°
2026-05-07 20:56 39.85036 12.73677 35456 ft 431 kts 172°
2026-05-07 20:57 39.82153 12.74791 34676 ft 434 kts 171°
2026-05-07 20:57 39.79274 12.75909 34187 ft 429 kts 171°
2026-05-07 20:57 39.76425 12.77024 33591 ft 426 kts 171°
2026-05-07 20:57 39.73605 12.78127 33070 ft 420 kts 172°
2026-05-07 20:58 39.70827 12.79210 32530 ft 415 kts 172°
2026-05-07 20:58 39.68074 12.80274 32026 ft 411 kts 172°
2026-05-07 20:58 39.65348 12.81321 31516 ft 406 kts 172°
2026-05-07 20:58 39.62647 12.82358 31007 ft 403 kts 172°
2026-05-07 20:59 39.59970 12.83385 30512 ft 400 kts 171°
2026-05-07 20:59 39.57314 12.84406 30012 ft 397 kts 171°
2026-05-07 20:59 39.54710 12.85408 29485 ft 393 kts 171°
2026-05-07 20:59 39.52106 12.86412 29000 ft 388 kts 171°
2026-05-07 21:00 39.49538 12.87400 28550 ft 383 kts 171°
2026-05-07 21:00 39.46996 12.88379 28086 ft 379 kts 171°
2026-05-07 21:00 39.44475 12.89346 27649 ft 376 kts 171°
2026-05-07 21:00 39.41979 12.90300 27216 ft 372 kts 171°
2026-05-07 21:01 39.39503 12.91248 26789 ft 369 kts 171°
2026-05-07 21:01 39.37050 12.92186 26365 ft 366 kts 170°
2026-05-07 21:01 39.34617 12.93115 25951 ft 363 kts 170°
2026-05-07 21:01 39.32202 12.94038 25530 ft 360 kts 170°
2026-05-07 21:02 39.29805 12.94952 25107 ft 358 kts 170°
2026-05-07 21:02 39.27424 12.95856 24687 ft 356 kts 170°
2026-05-07 21:02 39.25055 12.96755 24263 ft 355 kts 170°
2026-05-07 21:02 39.22687 12.97656 23831 ft 354 kts 170°
2026-05-07 21:03 39.20356 12.98543 23369 ft 354 kts 170°
2026-05-07 21:03 39.17994 12.99437 22891 ft 353 kts 169°
2026-05-07 21:03 39.15646 13.00329 22445 ft 351 kts 169°
2026-05-07 21:03 39.13310 13.01216 22003 ft 349 kts 169°
2026-05-07 21:04 39.10981 13.02099 21554 ft 348 kts 169°
2026-05-07 21:04 39.08661 13.02982 21119 ft 347 kts 169°
2026-05-07 21:04 39.06349 13.03860 20676 ft 346 kts 169°
2026-05-07 21:04 39.04043 13.04733 20249 ft 344 kts 168°
2026-05-07 21:05 39.01749 13.05599 19805 ft 344 kts 168°
2026-05-07 21:05 38.99454 13.06463 19381 ft 343 kts 168°
2026-05-07 21:05 38.97168 13.07324 18951 ft 342 kts 168°
2026-05-07 21:05 38.94883 13.08185 18523 ft 342 kts 168°
2026-05-07 21:06 38.92600 13.09050 18076 ft 342 kts 167°
2026-05-07 21:06 38.90320 13.09912 17625 ft 340 kts 167°
2026-05-07 21:06 38.88054 13.10765 17213 ft 338 kts 167°
2026-05-07 21:06 38.85797 13.11613 16788 ft 336 kts 167°
2026-05-07 21:07 38.83554 13.12426 16364 ft 334 kts 168°
2026-05-07 21:07 38.81316 13.13202 15971 ft 333 kts 169°
2026-05-07 21:07 38.79081 13.13964 15568 ft 331 kts 169°
2026-05-07 21:07 38.76883 13.14710 15171 ft 330 kts 168°
2026-05-07 21:08 38.74667 13.15464 14783 ft 329 kts 168°
2026-05-07 21:08 38.72453 13.16221 14380 ft 329 kts 168°
2026-05-07 21:08 38.70243 13.16977 13978 ft 328 kts 168°
2026-05-07 21:08 38.68037 13.17732 13566 ft 328 kts 168°
2026-05-07 21:09 38.65835 13.18485 13145 ft 327 kts 168°
2026-05-07 21:09 38.63645 13.19235 12741 ft 325 kts 168°
2026-05-07 21:09 38.61473 13.19980 12335 ft 322 kts 168°
2026-05-07 21:09 38.59312 13.20724 11927 ft 320 kts 168°
2026-05-07 21:10 38.57168 13.21464 11514 ft 318 kts 168°
2026-05-07 21:10 38.55042 13.22203 11124 ft 316 kts 167°
2026-05-07 21:10 38.52984 13.23219 10683 ft 318 kts 161°
2026-05-07 21:10 38.50945 13.24314 10231 ft 318 kts 161°
2026-05-07 21:11 38.48910 13.25390 9941 ft 310 kts 164°
2026-05-07 21:11 38.46865 13.25735 9783 ft 290 kts 191°
2026-05-07 21:11 38.43920 13.22784 8806 ft 283 kts 246°
2026-05-07 21:12 38.43108 13.20505 8333 ft 282 kts 237°
2026-05-07 21:12 38.41660 13.18865 7871 ft 284 kts 205°
2026-05-07 21:12 38.39736 13.18548 7640 ft 280 kts 173°
2026-05-07 21:12 38.37882 13.19219 7455 ft 274 kts 161°
2026-05-07 21:13 38.36166 13.20197 7249 ft 266 kts 158°
2026-05-07 21:13 38.34628 13.21448 7049 ft 264 kts 135°
2026-05-07 21:13 38.33833 13.23508 6863 ft 261 kts 99°
2026-05-07 21:13 38.34038 13.25748 6681 ft 255 kts 65°
2026-05-07 21:14 38.34863 13.27740 6498 ft 255 kts 63°
2026-05-07 21:14 38.35589 13.29792 6313 ft 254 kts 67°
2026-05-07 21:14 38.36244 13.31881 6127 ft 252 kts 69°
2026-05-07 21:14 38.36876 13.33939 5930 ft 248 kts 69°
2026-05-07 21:15 38.37510 13.35974 5747 ft 246 kts 68°
2026-05-07 21:15 38.38149 13.37984 5568 ft 245 kts 69°
2026-05-07 21:15 38.38419 13.40082 5378 ft 238 kts 101°
2026-05-07 21:15 38.37824 13.41941 5283 ft 220 kts 131°
2026-05-07 21:16 38.36692 13.43090 5157 ft 206 kts 162°
2026-05-07 21:16 38.35356 13.43667 5006 ft 202 kts 166°
2026-05-07 21:16 38.34017 13.44217 4842 ft 203 kts 166°
2026-05-07 21:16 38.32654 13.44696 4686 ft 203 kts 176°
2026-05-07 21:17 38.31265 13.44628 4535 ft 199 kts 197°
2026-05-07 21:17 38.30002 13.43974 4369 ft 195 kts 216°
2026-05-07 21:17 38.29006 13.42838 4207 ft 192 kts 233°
2026-05-07 21:17 38.28365 13.41356 4095 ft 191 kts 247°
2026-05-07 21:18 38.27847 13.39800 4011 ft 191 kts 247°
2026-05-07 21:18 38.27327 13.38239 4018 ft 192 kts 247°
2026-05-07 21:18 38.26805 13.36670 4002 ft 193 kts 247°
2026-05-07 21:18 38.26281 13.35098 3831 ft 192 kts 247°
2026-05-07 21:19 38.25761 13.33536 3599 ft 191 kts 247°
2026-05-07 21:19 38.25246 13.31993 3393 ft 187 kts 246°
2026-05-07 21:19 38.24741 13.30478 3121 ft 184 kts 246°
2026-05-07 21:19 38.24249 13.29004 2881 ft 179 kts 246°
2026-05-07 21:20 38.23767 13.27559 2648 ft 175 kts 246°
2026-05-07 21:20 38.23297 13.26153 2417 ft 171 kts 246°
2026-05-07 21:20 38.22844 13.24797 2200 ft 161 kts 246°
2026-05-07 21:20 38.22417 13.23520 1978 ft 151 kts 245°
2026-05-07 21:21 38.22018 13.22327 1800 ft 143 kts 245°
2026-05-07 21:21 38.21637 13.21190 1614 ft 137 kts 245°
2026-05-07 21:21 38.21264 13.20076 1427 ft 135 kts 244°
2026-05-07 21:21 38.20898 13.18984 1283 ft 133 kts 246°
2026-05-07 21:22 38.20540 13.17915 1088 ft 133 kts 246°
2026-05-07 21:22 38.20175 13.16827 921 ft 134 kts 246°
2026-05-07 21:22 38.19812 13.15745 739 ft 132 kts 246°
2026-05-07 21:22 38.19444 13.14648 554 ft 136 kts 245°
2026-05-07 21:23 38.19073 13.13541 371 ft 135 kts 245°
2026-05-07 21:23 38.18704 13.12442 208 ft 135 kts 245°
2026-05-07 21:23 38.18340 13.11357 67 ft 126 kts 247°
2026-05-07 21:23 38.18094 13.10622 68 ft 47 kts 247°
2026-05-07 21:24 38.18015 13.10388 60 ft 27 kts 247°
2026-05-07 21:24 38.18001 13.10233 67 ft 9 kts 295°
2026-05-07 21:24 38.18023 13.10195 61 ft 7 kts 288°
2026-05-07 21:24 38.18033 13.10112 64 ft 10 kts 275°
2026-05-07 21:25 38.18039 13.10025 64 ft 9 kts 276°
2026-05-07 21:25 38.18058 13.09958 59 ft 7 kts 342°
2026-05-07 21:25 38.18102 13.10026 64 ft 15 kts 69°
2026-05-07 21:25 38.18154 13.10147 59 ft 13 kts 27°
2026-05-07 21:26 38.18234 13.10124 58 ft 11 kts 338°
2026-05-07 21:26 38.18272 13.10108 61 ft 5 kts
2026-05-07 21:26 38.18295 13.10131 59 ft 4 kts 50°
2026-05-07 21:26 38.18304 13.10158 61 ft 3 kts 70°
2026-05-07 21:27 38.18306 13.10164 62 ft 0 kts 70°